Location: Helsinki
(60.1699°N, 24.9384°E)
Time: 23:51:50
(UTC+02:00)

Transit 4A - Pass Details

Date: 27 October 2020
Orbit: 862 x 982 km, 66.8° (Epoch: 25 November)

Event Time Altitude Azimuth Distance (km) Brightness Sun altitude
Rises 18:58:03 0° 262° (W) 3,652 12.5 -18.0°
Reaches altitude 10° 19:00:40 10° 267° (W) 2,719 11.6 -18.4°
Maximum altitude 19:06:54 53° 344° (NNW) 1,199 8.6 -19.1°
Enters shadow 19:11:05 22° 53° (NE) 2,035 9.3 -19.7°
